IRIDIUM 60 [-]

Last updated on Mon Mar 18 2019 03:11:42 GMT+0000 (Greenwich Mean Time)

1 25276U 98019E 19076.09838740 .20703913 -20185-5 27553-3 0 9993 2 25276 86.6001 19.3692 0055885 123.4760 3.9128 16.42359298 97670

Satellite not in orbit